This is the latest recevied weather packets stored in our database for station/object JF7ELG-13. If no packets are shown the sender has not sent any weather packets the latest 10 day(s).
| Time | Temp. | Humidity | Pressure | Rain* | Wind** | Luminosity | Snow |
|---|---|---|---|---|---|---|---|
| 1777462414 | 7.78° C | 94% | 1015 hPa | 0 mm | - | - | - |
| 1777461532 | 7.78° C | 94% | 1014.8 hPa | 0 mm | - | - | - |
| 1777460605 | 7.78° C | 94% | 1014.4 hPa | 0 mm | - | - | - |
| 1777459728 | 8.33° C | 93% | 1014.1 hPa | 0 mm | - | - | - |
| 1777458796 | 8.33° C | 93% | 1013.8 hPa | 0 mm | - | - | - |
| 1777457922 | 8.89° C | 92% | 1013.4 hPa | 0 mm | - | - | - |
| 1777456993 | 8.89° C | 91% | 1013.3 hPa | 0 mm | - | - | - |
| 1777456107 | 9.44° C | 90% | 1013.1 hPa | 0 mm | - | - | - |
| 1777455195 | 10° C | 89% | 1013 hPa | 0 mm | - | - | - |
| 1777454331 | 10° C | 88% | 1012.8 hPa | 0 mm | - | - | - |
| 1777453397 | 10° C | 87% | 1012.6 hPa | 0 mm | - | - | - |
| 1777452495 | 10.56° C | 87% | 1012.4 hPa | 0 mm | - | - | - |
| 1777451622 | 10.56° C | 86% | 1012.3 hPa | 0 mm | - | - | - |
| 1777450729 | 10.56° C | 85% | 1012 hPa | 0 mm | - | - | - |
| 1777449796 | 11.11° C | 82% | 1011.8 hPa | 0 mm | - | - | - |
| 1777448915 | 11.67° C | 82% | 1011.7 hPa | 0 mm | - | - | - |
| 1777448027 | 11.67° C | 83% | 1011.7 hPa | 0 mm | - | - | - |
| 1777447124 | 11.11° C | 83% | 1011.5 hPa | 0 mm | - | - | - |
| 1777446217 | 11.11° C | 83% | 1011.6 hPa | 0 mm | - | - | - |
| 1777445317 | 11.67° C | 81% | 1011.6 hPa | 0 mm | - | - | - |
| 1777444427 | 11.67° C | 81% | 1011.3 hPa | 0 mm | - | - | - |
| 1777443528 | 12.22° C | 80% | 1011.2 hPa | 0 mm | - | - | - |
| 1777442593 | 12.22° C | 79% | 1011.3 hPa | 0 mm | - | - | - |
| 1777441710 | 12.22° C | 79% | 1011.1 hPa | 0 mm | - | - | - |
| 1777440793 | 12.22° C | 79% | 1011 hPa | 0 mm | - | - | - |
* Rain latest hour (hover to see other rain measurements)
** Current wind speed in m/s (hover to see current wind gust speed)